• In Romania
  • List of Countries
  • For 7 days
  • Water Temperature
  • Satellite Maps
  • Weather Map
  • Weather Widgets
  • user-avatar
    Login

    Hourly Weather Kotagiri

    Today, 14 December, Thursday

    Time Temperature Precipitation Wind Pressure Humidity
    00:00 +13°C° 0.1 mm 0 mps 619 mmHg 90%
    01:00 +13°C° 0.1 mm 0 mps 619 mmHg 91%
    02:00 +13°C° 0.1 mm 0 mps 619 mmHg 91%
    03:00 +13°C° 0 mm 0 mps 619 mmHg 92%
    04:00 +13°C° 0 mm 1 mps 619 mmHg 93%
    05:00 +13°C° 0 mm 1 mps 619 mmHg 94%
    06:00 +14°C° 0 mm 1 mps 619 mmHg 91%
    07:00 +15°C° 0 mm 1 mps 620 mmHg 87%
    08:00 +16°C° 0 mm 1 mps 621 mmHg 83%
    09:00 +19°C° 0.1 mm 1 mps 621 mmHg 77%
    10:00 +20°C° 0.1 mm 1 mps 622 mmHg 70%
    11:00 +21°C° 0 mm 2 mps 622 mmHg 63%
    12:00 +21°C° 0.3 mm 2 mps 622 mmHg 63%
    13:00 +21°C° 0.3 mm 2 mps 621 mmHg 62%
    14:00 +21°C° 0.3 mm 2 mps 621 mmHg 62%
    15:00 +21°C° 0.3 mm 1 mps 621 mmHg 66%
    16:00 +20°C° 0.3 mm 1 mps 620 mmHg 71%
    17:00 +19°C° 0.3 mm 1 mps 620 mmHg 75%
    18:00 +18°C° 0.3 mm 1 mps 620 mmHg 78%
    19:00 +16°C° 0.3 mm 1 mps 620 mmHg 80%
    20:00 +15°C° 0.3 mm 1 mps 620 mmHg 83%
    21:00 +15°C° 0 mm 1 mps 620 mmHg 84%
    22:00 +15°C° 0 mm 1 mps 620 mmHg 85%
    23:00 +14°C° 0 mm 1 mps 620 mmHg 85%

    Tomorrow, 15 December, Friday

    Time Temperature Precipitation Wind Pressure Humidity
    00:00 +14°C° 0 mm 1 mps 619 mmHg 86%
    01:00 +14°C° 0 mm 1 mps 619 mmHg 87%
    02:00 +13°C° 0 mm 1 mps 618 mmHg 88%
    03:00 +13°C° 0 mm 1 mps 618 mmHg 89%
    04:00 +13°C° 0 mm 1 mps 618 mmHg 89%
    05:00 +12°C° 0 mm 1 mps 618 mmHg 90%
    06:00 +13°C° 0 mm 1 mps 619 mmHg 85%
    07:00 +15°C° 0 mm 1 mps 620 mmHg 80%
    08:00 +16°C° 0 mm 1 mps 621 mmHg 76%
    09:00 +18°C° 0 mm 1 mps 621 mmHg 68%
    10:00 +19°C° 0 mm 2 mps 622 mmHg 60%
    11:00 +21°C° 0 mm 2 mps 623 mmHg 52%
    12:00 +21°C° 0 mm 2 mps 622 mmHg 52%
    13:00 +21°C° 0 mm 2 mps 621 mmHg 51%
    14:00 +23°C° 0 mm 2 mps 621 mmHg 51%
    15:00 +21°C° 0 mm 2 mps 621 mmHg 56%
    16:00 +20°C° 0 mm 2 mps 620 mmHg 62%
    17:00 +19°C° 0 mm 2 mps 620 mmHg 68%
    18:00 +18°C° 0.1 mm 2 mps 620 mmHg 73%
    19:00 +16°C° 0.1 mm 2 mps 620 mmHg 77%
    20:00 +15°C° 0.1 mm 2 mps 620 mmHg 82%
    21:00 +15°C° 0 mm 2 mps 620 mmHg 83%
    22:00 +15°C° 0 mm 2 mps 620 mmHg 85%
    23:00 +15°C° 0 mm 2 mps 620 mmHg 86%

    Day after tomorrow, 16 December, Saturday

    Time Temperature Precipitation Wind Pressure Humidity
    00:00 +14°C° 0 mm 2 mps 620 mmHg 88%
    01:00 +14°C° 0 mm 2 mps 620 mmHg 90%
    02:00 +14°C° 0 mm 2 mps 619 mmHg 92%
    03:00 +13°C° 0 mm 2 mps 619 mmHg 93%
    04:00 +13°C° 0 mm 2 mps 619 mmHg 93%
    05:00 +13°C° 0 mm 2 mps 619 mmHg 93%
    06:00 +14°C° 0 mm 2 mps 620 mmHg 87%
    07:00 +15°C° 0 mm 2 mps 620 mmHg 82%
    08:00 +16°C° 0 mm 2 mps 621 mmHg 76%
    09:00 +17°C° 0 mm 2 mps 622 mmHg 70%
    10:00 +18°C° 0 mm 3 mps 622 mmHg 65%
    11:00 +20°C° 0 mm 3 mps 622 mmHg 59%
    12:00 +20°C° 0 mm 3 mps 622 mmHg 58%
    13:00 +20°C° 0 mm 3 mps 621 mmHg 58%
    14:00 +21°C° 0 mm 3 mps 620 mmHg 57%
    15:00 +20°C° 0 mm 3 mps 620 mmHg 61%
    16:00 +19°C° 0 mm 2 mps 620 mmHg 65%
    17:00 +18°C° 0 mm 2 mps 620 mmHg 70%
    18:00 +17°C° 0 mm 2 mps 620 mmHg 73%
    19:00 +16°C° 0 mm 2 mps 620 mmHg 76%
    20:00 +15°C° 0 mm 1 mps 620 mmHg 79%
    21:00 +14°C° 0 mm 1 mps 620 mmHg 81%
    22:00 +14°C° 0 mm 1 mps 620 mmHg 83%
    23:00 +14°C° 0 mm 1 mps 620 mmHg 85%

    17 December, Sunday

    Time Temperature Precipitation Wind Pressure Humidity
    00:00 +13°C° 0 mm 2 mps 620 mmHg 86%
    01:00 +13°C° 0 mm 2 mps 620 mmHg 88%
    02:00 +13°C° 0 mm 2 mps 619 mmHg 89%
    03:00 +12°C° 0 mm 2 mps 619 mmHg 89%
    04:00 +12°C° 0 mm 2 mps 619 mmHg 88%
    05:00 +12°C° 0 mm 2 mps 619 mmHg 88%
    06:00 +13°C° 0 mm 2 mps 620 mmHg 82%
    07:00 +14°C° 0 mm 2 mps 621 mmHg 76%
    08:00 +15°C° 0 mm 2 mps 622 mmHg 70%
    09:00 +17°C° 0 mm 3 mps 622 mmHg 65%
    10:00 +18°C° 0 mm 3 mps 623 mmHg 59%
    11:00 +19°C° 0 mm 3 mps 623 mmHg 54%
    12:00 +20°C° 0 mm 3 mps 622 mmHg 52%
    13:00 +20°C° 0 mm 3 mps 622 mmHg 50%
    14:00 +21°C° 0 mm 3 mps 621 mmHg 48%
    15:00 +20°C° 0 mm 3 mps 621 mmHg 53%
    16:00 +19°C° 0 mm 2 mps 620 mmHg 58%
    17:00 +17°C° 0 mm 2 mps 620 mmHg 64%
    18:00 +16°C° 0 mm 2 mps 620 mmHg 67%
    19:00 +15°C° 0 mm 2 mps 620 mmHg 71%
    20:00 +14°C° 0 mm 2 mps 621 mmHg 74%
    21:00 +14°C° 0 mm 2 mps 621 mmHg 76%
    22:00 +13°C° 0 mm 2 mps 621 mmHg 78%
    23:00 +13°C° 0 mm 2 mps 620 mmHg 80%

    18 December, Monday

    Time Temperature Precipitation Wind Pressure Humidity
    00:00 +12°C° 0 mm 2 mps 620 mmHg 80%
    01:00 +12°C° 0 mm 2 mps 619 mmHg 81%
    02:00 +10°C° 0 mm 2 mps 619 mmHg 81%
    03:00 +10°C° 0 mm 2 mps 619 mmHg 79%
    04:00 +10°C° 0 mm 2 mps 619 mmHg 77%
    05:00 +9°C° 0 mm 2 mps 619 mmHg 75%
    06:00 +12°C° 0 mm 2 mps 620 mmHg 70%
    07:00 +13°C° 0 mm 2 mps 621 mmHg 66%
    08:00 +14°C° 0 mm 2 mps 622 mmHg 61%
    09:00 +16°C° 0 mm 2 mps 622 mmHg 55%
    10:00 +18°C° 0 mm 3 mps 623 mmHg 49%
    11:00 +19°C° 0 mm 3 mps 623 mmHg 43%
    12:00 +20°C° 0 mm 3 mps 623 mmHg 43%
    13:00 +20°C° 0 mm 3 mps 622 mmHg 42%
    14:00 +21°C° 0 mm 3 mps 621 mmHg 42%
    15:00 +20°C° 0 mm 3 mps 621 mmHg 48%
    16:00 +18°C° 0 mm 2 mps 621 mmHg 53%
    17:00 +17°C° 0 mm 2 mps 620 mmHg 59%
    18:00 +16°C° 0 mm 2 mps 620 mmHg 62%
    19:00 +15°C° 0 mm 2 mps 620 mmHg 66%
    20:00 +13°C° 0 mm 2 mps 620 mmHg 69%
    21:00 +13°C° 0 mm 1 mps 620 mmHg 71%
    22:00 +13°C° 0 mm 1 mps 620 mmHg 73%
    23:00 +12°C° 0 mm 1 mps 620 mmHg 75%

    19 December, Tuesday

    Time Temperature Precipitation Wind Pressure Humidity
    00:00 +12°C° 0 mm 1 mps 620 mmHg 77%
    01:00 +11°C° 0 mm 1 mps 619 mmHg 79%
    02:00 +11°C° 0 mm 1 mps 619 mmHg 81%
    03:00 +11°C° 0 mm 1 mps 618 mmHg 80%
    04:00 +10°C° 0 mm 1 mps 618 mmHg 79%
    05:00 +10°C° 0 mm 1 mps 618 mmHg 78%
    06:00 +12°C° 0 mm 1 mps 619 mmHg 71%
    07:00 +13°C° 0 mm 1 mps 620 mmHg 64%
    08:00 +15°C° 0 mm 1 mps 621 mmHg 57%
    09:00 +16°C° 0 mm 2 mps 622 mmHg 53%
    10:00 +18°C° 0 mm 2 mps 622 mmHg 50%
    11:00 +20°C° 0 mm 3 mps 623 mmHg 46%
    12:00 +20°C° 0 mm 3 mps 622 mmHg 48%
    13:00 +21°C° 0 mm 3 mps 622 mmHg 50%
    14:00 +21°C° 0 mm 3 mps 621 mmHg 53%
    15:00 +20°C° 0.1 mm 3 mps 621 mmHg 59%
    16:00 +19°C° 0.1 mm 2 mps 620 mmHg 65%
    17:00 +18°C° 0.1 mm 2 mps 620 mmHg 71%
    18:00 +17°C° 0.1 mm 2 mps 620 mmHg 73%
    19:00 +16°C° 0.1 mm 2 mps 621 mmHg 76%
    20:00 +15°C° 0.1 mm 1 mps 621 mmHg 79%
    21:00 +15°C° 0 mm 1 mps 621 mmHg 80%
    22:00 +15°C° 0 mm 1 mps 621 mmHg 80%
    23:00 +15°C° 0 mm 1 mps 621 mmHg 81%
    Show more